Wind_Speed
31 28 20 21 22 28 27 29 25 21 23 20 17 16 16 17 13 9 7 5 5 4 4 9 13 16 18 20 23 24 26 28 29 29 30 30 30 31 31 32 32 31 30 30
26 26 26 24 25 27 31 29 32 27 23 20 20 15 13 15 15 12 9 5 2 1 2 5 10 14 17 19 21 23 25 27 26 27 28 29 29 30 30 30 31 30 30 30
22 23 26 23 25 28 23 24 25 24 23 11 11 14 17 16 13 11 8 4 1 1 1 2 4 9 15 18 19 22 23 23 23 24 26 26 27 28 29 30 29 30 30 29
15 19 21 22 24 25 23 21 24 21 16 17 17 12 10 10 11 9 7 4 3 1 2 2 2 5 9 13 16 17 18 18 19 21 22 23 25 27 28 28 29 31 30 30
13 15 11 13 8 22 24 23 21 21 15 13 14 13 9 8 6 8 7 5 3 2 4 4 3 1 7 10 12 14 14 15 17 18 19 20 22 24 25 25 25 27 26 28
12 19 23 18 13 10 15 20 26 22 17 21 20 13 10 11 10 9 9 7 5 6 8 9 8 6 6 7 8 9 10 11 12 14 16 17 18 19 20 21 22 22 22 25
8 14 15 7 9 9 16 9 17 21 22 23 20 2 20 14 12 12 11 10 11 12 13 12 10 9 8 8 7 6 6 7 9 11 13 14 15 17 19 21 20 22 22 22
5 5 8 6 8 10 2 1 11 14 18 19 16 19 18 16 14 12 12 12 12 14 14 13 11 10 11 10 6 5 5 6 7 8 10 11 13 14 15 17 18 19 18 18
5 6 1 2 4 3 1 8 11 14 17 18 20 19 17 15 13 11 13 13 13 13 14 14 13 11 10 7 5 4 4 4 5 7 9 10 12 14 14 15 17 16 18 19
5 3 4 2 2 2 7 11 15 16 18 18 20 18 17 14 12 11 13 12 11 12 13 13 12 12 11 8 4 2 1 2 4 6 8 10 11 13 16 18 18 19 21 23
4 7 9 6 6 10 14 16 18 17 17 18 17 15 14 13 12 11 11 11 11 11 11 11 11 11 12 12 8 5 4 4 5 6 8 9 12 13 16 18 20 21 23 22
9 13 4 12 11 13 15 16 17 18 17 15 13 14 13 11 11 11 10 8 8 9 8 9 9 9 10 12 12 10 9 7 7 8 9 11 12 13 18 20 18 25 23 25
5 13 13 16 13 15 15 13 13 14 14 15 12 13 13 9 10 9 7 7 7 6 5 6 7 8 9 11 10 10 10 10 11 10 11 13 14 15 15 12 22 23 25 27
17 20 17 15 10 14 15 15 17 15 13 12 12 12 10 8 7 7 6 5 4 4 5 6 7 8 9 10 11 11 13 14 13 13 14 14 15 16 16 16 15 14 22 28
8 7 16 16 16 16 12 13 14 12 11 10 10 9 8 7 6 6 5 3 2 2 2 3 5 6 8 8 10 11 12 12 14 16 17 17 17 17 17 18 19 16 13 21
12 16 17 15 15 16 15 12 11 9 8 7 7 7 6 5 4 2 1 1 2 3 4 5 7 7 8 8 10 11 12 13 14 15 17 19 20 19 20 20 20 19 20 20
13 13 13 13 12 11 10 8 7 8 7 7 6 6 4 2 1 2 2 3 4 6 6 8 9 8 7 8 10 12 13 14 15 16 16 17 19 22 23 23 23 21 22 21
12 10 9 10 10 8 6 5 5 6 5 5 5 4 3 3 4 3 4 4 5 8 9 9 8 7 8 9 10 12 14 14 14 16 17 17 18 20 23 25 25 23 22 22
10 10 9 8 7 4 3 3 3 3 4 4 5 5 6 7 7 7 5 6 9 10 8 6 9 10 10 11 13 12 13 14 15 16 18 20 21 22 21 23 26 25 24 22
12 12 11 9 7 4 1 1 3 5 6 7 7 7 10 14 16 16 11 12 13 13 11 10 10 11 11 11 12 11 14 15 17 19 19 20 21 22 23 25 26 27 25 25
8 6 5 3 2 1 3 4 6 9 9 9 11 15 18 20 16 17 12 13 19 16 15 15 14 14 13 13 12 13 13 15 17 19 20 20 21 23 24 25 26 26 27 28
4 3 3 2 2 4 5 7 9 12 14 15 18 21 22 22 24 24 29 25 22 19 17 15 17 19 19 18 15 15 15 16 17 19 21 21 22 23 25 26 27 27 27 28
2 1 1 3 4 6 6 9 12 16 19 21 21 20 20 22 21 19 11 23 23 21 21 19 21 24 26 24 20 20 19 19 19 20 22 23 24 25 26 27 27 27 27 28
2 3 4 5 5 7 8 14 13 14 17 20 21 23 19 16 17 19 23 25 26 24 27 25 26 29 27 26 26 24 23 23 21 22 22 24 25 26 27 28 28 29 30 30
6 7 8 8 9 10 13 15 16 17 18 19 19 19 19 18 18 22 19 22 25 25 25 27 28 29 29 30 29 28 26 23 22 21 21 23 26 26 27 27 28 29 29 29
9 9 10 11 13 14 15 15 16 18 18 18 19 19 19 19 17 19 22 24 25 25 26 27 28 27 26 25 26 26 24 22 22 22 22 24 25 26 26 27 28 28 29 29
12 13 13 13 14 15 16 17 18 18 21 19 20 22 21 22 23 21 20 24 24 25 25 24 25 24 23 23 22 21 23 23 22 21 21 23 24 24 25 25 26 26 27 28
Wind_Direction
230 226 216 211 211 210 217 226 223 224 224 234 203 211 207 193 188 193 195 180 172 157 184 196 196 197 197 197 199 200 203 207 210 210 210 212 211 210 210 210 209 209 207 209
231 232 224 222 213 211 217 221 231 234 240 226 237 243 181 192 193 192 186 183 172 139 164 199 209 207 202 201 199 199 203 208 209 208 209 210 210 210 211 212 211 210 209 208
225 220 224 227 221 213 213 222 226 229 234 174 191 196 194 187 190 183 175 167 153 357 257 211 224 218 211 205 199 200 203 206 207 208 209 210 210 209 209 211 209 208 212 211
221 208 223 228 233 233 231 224 227 227 229 209 210 183 167 177 174 161 150 144 88 343 350 1 291 234 213 204 199 200 203 204 203 205 209 207 208 211 211 210 211 206 209 212
214 203 208 192 218 210 221 224 218 215 208 182 148 140 157 157 152 132 118 87 70 21 27 33 31 154 179 184 187 192 196 198 199 202 206 207 211 213 214 213 210 208 212 213
198 210 219 226 186 202 223 231 222 213 185 167 161 184 166 155 139 119 108 101 97 86 80 71 67 96 133 150 168 184 191 193 194 198 203 207 211 214 216 215 212 210 213 213
206 201 207 113 147 176 191 234 173 193 186 175 179 75 128 135 121 113 108 109 105 90 80 73 76 88 102 118 124 136 157 173 184 195 202 207 208 208 209 208 208 208 205 207
233 244 194 156 141 197 32 289 173 181 163 158 125 123 126 125 119 115 106 98 95 91 82 74 71 82 86 82 88 112 140 161 179 190 196 202 205 206 212 211 206 198 202 202
226 184 66 93 29 11 50 141 152 145 148 142 136 131 128 123 115 102 92 86 83 85 79 64 56 52 70 64 80 113 139 162 184 193 200 202 202 200 196 202 211 204 206 205
191 139 106 86 130 178 126 136 134 134 136 138 131 130 126 122 113 99 83 76 74 75 70 58 47 45 41 32 23 1 271 223 212 211 210 210 209 209 207 209 213 211 206 201
149 140 119 104 115 123 117 118 121 122 126 128 130 126 122 116 106 95 87 75 63 60 51 46 37 35 29 23 8 340 313 283 261 247 230 231 227 224 225 227 219 214 219 217
213 165 149 134 127 122 119 115 112 114 111 113 125 119 112 101 95 93 84 70 59 47 35 22 14 9 7 7 3 350 325 306 288 272 258 249 245 243 243 233 238 234 228 225
142 146 122 125 116 114 107 99 96 105 104 111 105 106 104 105 99 99 88 66 48 29 14 4 352 342 342 340 337 329 319 308 296 282 272 263 256 252 253 248 241 240 237 234
122 120 117 132 121 111 114 119 119 113 114 116 116 110 112 109 100 87 76 62 39 16 9 1 352 347 344 339 331 319 307 299 292 286 277 269 263 261 258 252 241 238 238 230
117 111 122 121 122 119 118 124 132 130 129 117 110 112 120 125 116 103 98 74 31 4 350 331 327 323 334 337 333 325 314 302 294 287 281 276 274 266 259 255 251 238 219 223
83 102 120 120 124 131 146 147 131 131 130 128 134 133 121 110 103 103 129 187 298 296 305 300 291 296 306 318 319 315 309 302 300 294 288 279 272 267 262 256 252 244 233 225
115 114 121 126 134 136 135 129 133 142 144 149 146 142 143 151 240 243 241 260 272 279 284 281 282 282 282 297 304 305 303 300 299 294 290 290 286 277 270 265 258 251 245 230
72 94 96 127 131 134 125 113 117 134 141 145 150 173 199 242 260 246 245 261 275 284 283 278 274 265 278 289 295 298 296 292 290 289 289 287 286 286 282 275 266 259 249 236
68 79 81 82 81 96 133 149 162 171 173 187 208 231 250 252 256 259 263 270 277 275 287 262 265 276 282 288 290 293 289 286 285 282 280 282 279 276 271 272 273 264 255 240
81 77 77 77 72 74 92 184 229 239 238 244 248 251 258 261 260 261 260 260 265 266 271 269 261 267 273 278 283 291 291 289 288 287 282 276 276 274 271 267 261 264 262 245
88 84 76 64 46 310 265 253 240 254 258 247 240 246 247 259 259 257 241 248 262 259 248 252 249 255 260 258 261 276 279 283 286 288 288 284 280 273 272 270 262 257 250 247
84 71 52 7 308 289 276 261 253 254 257 257 252 256 258 261 265 258 252 248 258 257 247 250 249 252 250 250 257 263 269 275 280 286 286 283 281 278 274 273 266 257 248 238
34 340 282 224 243 269 274 269 260 256 257 261 260 257 252 256 261 261 251 249 248 249 248 249 250 253 257 255 254 256 256 260 269 278 280 280 279 278 275 273 273 262 249 237
299 291 284 280 270 271 275 281 273 270 264 269 269 268 260 259 258 260 257 254 258 261 256 256 260 268 271 255 250 249 255 262 266 270 279 282 281 280 277 275 272 265 251 239
279 281 277 267 265 268 275 280 281 277 274 270 268 265 260 256 245 267 262 263 272 274 270 277 281 282 278 272 256 252 254 258 264 270 274 276 278 277 276 273 273 267 249 235
270 271 275 276 275 278 278 278 275 279 278 273 268 266 263 258 257 252 263 272 274 275 275 280 282 282 277 266 260 256 255 262 267 271 275 276 278 279 280 279 277 268 249 235
273 270 275 277 277 280 279 281 284 281 281 272 263 265 269 270 269 262 258 266 269 273 276 277 279 275 268 263 260 256 268 269 265 271 276 281 284 284 286 287 287 272 249 230
Height
688 689 692 703 708 709 718 707 723 715 715 708 706 710 710 714 721 728 730 733 736 739 743 747 752 757 761 764 768 772 776 780 783 788 793 797 802 806 811 815 818 823 828 833
693 687 687 694 694 699 701 703 701 704 704 690 697 695 708 718 723 727 731 735 739 741 743 745 748 751 755 758 762 765 769 772 777 782 786 790 795 799 804 808 812 817 821 825
693 686 686 703 684 684 690 690 692 701 696 697 708 709 712 717 722 725 731 736 738 741 743 744 746 747 749 753 757 760 763 767 771 776 780 785 790 793 796 800 805 809 814 819
685 683 714 675 670 671 678 680 680 685 685 687 695 701 712 717 722 728 732 736 737 741 742 742 744 744 746 749 753 757 760 764 767 772 776 780 783 786 790 793 798 801 805 810
688 690 680 679 675 672 675 679 673 681 682 689 701 715 725 725 725 727 732 734 739 742 741 741 741 742 744 747 750 754 757 760 764 767 771 775 778 782 785 789 792 796 800 804
682 688 689 661 658 660 661 679 659 670 682 695 706 710 708 722 726 729 732 737 740 741 741 742 742 743 744 747 750 753 756 758 762 765 768 771 774 778 782 786 789 792 795 798
674 671 662 666 669 668 687 673 658 664 674 688 695 691 708 722 727 731 735 738 740 741 742 743 745 745 746 749 751 754 756 759 761 763 766 769 772 775 778 781 784 787 789 793
695 683 679 668 674 673 669 667 665 669 677 691 704 710 715 723 728 733 736 738 740 742 744 747 747 747 748 751 754 756 757 759 761 763 765 767 770 772 775 778 780 781 786 789
670 676 677 678 675 677 675 675 675 680 687 699 705 713 720 726 732 736 738 740 742 744 748 750 751 751 752 755 756 757 758 759 761 762 763 765 767 770 772 776 779 779 782 785
676 680 678 682 683 681 675 680 684 690 697 704 709 716 722 728 734 739 743 746 748 749 750 753 755 756 756 757 757 758 758 759 760 761 762 763 764 766 767 769 772 773 775 776
682 684 686 691 686 684 685 691 691 696 701 708 717 722 726 731 737 742 746 750 752 752 754 755 757 758 759 759 759 758 758 759 760 760 760 760 761 762 762 762 764 766 768 772
654 667 666 686 692 695 697 700 703 706 711 717 727 729 733 737 740 745 749 752 754 755 757 758 758 759 760 760 759 759 758 757 757 758 757 757 757 758 757 758 758 760 762 762
664 671 677 690 695 698 706 712 714 717 724 727 733 735 738 744 747 751 753 753 755 758 759 760 761 761 761 761 760 760 759 757 756 756 755 754 753 753 752 752 753 754 756 758
671 676 687 692 700 706 713 717 722 726 730 734 737 739 743 748 750 751 754 756 758 759 759 760 761 761 762 761 760 758 757 756 755 753 752 751 749 748 748 748 747 748 749 752
682 679 687 699 706 713 720 722 726 730 735 738 740 743 747 750 751 753 755 757 758 759 760 761 761 761 761 760 759 757 756 754 752 750 749 747 746 744 744 744 743 743 743 746
691 688 696 704 711 716 722 726 728 732 735 739 743 746 748 749 750 752 754 756 757 757 759 760 760 759 759 757 756 755 753 752 751 748 745 742 740 739 738 737 736 737 737 739
698 699 702 707 713 717 721 726 729 733 737 741 743 746 747 749 750 752 753 755 756 756 757 756 755 755 755 754 753 752 750 748 747 745 742 739 736 733 731 730 729 729 729 731
701 702 706 710 715 721 726 730 733 736 739 742 745 747 749 751 750 751 752 753 754 753 752 751 751 750 750 749 749 747 746 744 743 742 739 737 734 732 728 724 722 721 721 722
707 711 715 717 722 725 728 731 735 737 740 742 744 745 747 748 748 749 750 750 751 750 748 748 747 746 746 745 744 743 741 739 738 735 733 731 728 726 723 721 718 714 714 714
715 718 721 724 726 729 731 733 736 737 739 740 742 744 745 745 745 746 747 746 744 744 743 743 742 742 741 740 739 738 736 734 732 730 727 724 721 718 715 713 710 708 706 705
720 723 725 727 728 730 733 734 736 736 736 738 740 739 739 739 740 740 742 740 736 736 736 735 735 734 733 733 732 731 729 727 726 722 720 717 713 709 706 704 701 699 697 697
724 724 727 728 729 730 731 733 733 734 734 734 734 735 735 734 733 731 730 731 729 728 728 727 727 726 726 725 724 722 721 719 716 714 711 708 705 701 697 695 692 690 688 687
723 725 727 729 731 731 731 730 730 730 729 728 728 727 726 724 724 721 719 719 717 718 717 718 717 716 716 716 715 713 710 708 706 704 702 698 695 692 688 685 682 680 678 677
725 726 728 728 729 729 728 725 725 724 722 721 719 717 717 715 714 713 710 710 710 709 708 707 706 706 705 705 703 702 700 699 696 694 692 689 686 683 679 676 672 669 667 667
724 725 725 725 724 722 722 720 719 717 715 713 711 709 708 706 705 702 702 701 700 700 699 697 696 695 694 693 691 690 688 688 687 685 682 680 677 673 670 667 663 660 658 657
721 721 720 720 719 717 716 714 712 709 707 704 702 700 699 697 696 695 693 691 691 690 688 687 686 684 683 682 681 679 679 678 678 676 673 670 668 664 661 657 654 650 648 648
717 716 716 714 713 711 709 707 705 702 700 697 694 692 691 689 687 686 685 683 681 680 679 678 677 676 674 673 672 671 670 669 668 667 664 662 659 656 653 649 645 642 641 641